Regional Weather Roundup
Issued by NWS

Home | Current Version | Previous Version | Graphics & Text | Print | Product List | Glossary On
Versions: 1 2 3 4 5 6 7 8 9 10 11 12 13 14 15 16 17 18 19 20 21 22 23 24 25 26 27 28 29 30 31 32 33 34 35 36 37 38 39 40 41 42 43 44 45 46 47 48 49 50
000
ASUS44 KMEG 281500
RWRTN
TENNESSEE HOURLY STATE WEATHER ROUNDUP
NATIONAL WEATHER SERVICE MEMPHIS TN
1000 AM CDT SAT MAY 28 2016

TNZ002-004-019-021-049-052-054-088>092-281600-
WEST TENNESSEE

CITY           SKY/WX    TMP DP  RH WIND       PRES   REMARKS
MEMPHIS INTL   PTSUNNY   79  68  69 SE10      30.01R
NWS MEMPHIS      N/A     76 N/A N/A MISG        N/A
JACKSON        CLOUDY    76  66  71 S8        30.03S
DYERSBURG      CLOUDY    75  66  73 S12       30.01R
UNION CITY     SUNNY     75  70  83 S10       30.01R
PARIS          SUNNY     75  64  69 S9        30.04S
LEXINGTON      SUNNY     79  66  65 S12       30.04F
$$

TNZ008-025-027-028-033-062-065-066-281600-
NORTH MIDDLE TENNESSEE

CITY           SKY/WX    TMP DP  RH WIND       PRES   REMARKS
NASHVILLE      CLOUDY    78  63  59 S9        30.10S
CLARKSVILLE    MOSUNNY   78  66  66 S10       30.06S
COOKEVILLE     SUNNY     79  64  61 S8        30.13F
CROSSVILLE     SUNNY     75  60  59 S7        30.20R
$$

TNZ061-075-076-078-094-096-097-281600-
SOUTH MIDDLE TENNESSEE

CITY           SKY/WX    TMP DP  RH WIND       PRES   REMARKS
TULLAHOMA      SUNNY     72  66  83 SE5       30.15S
WINCHESTER     SUNNY     72  63  73 SE10      30.14S
SHELBYVILLE    SUNNY     77  64  65 S8        30.13S
$$

TNZ017-018-042-046-047-281600-
NORTHEAST TENNESSEE

CITY           SKY/WX    TMP DP  RH WIND       PRES   REMARKS
TRI CITIES     SUNNY     77  63  61 CALM      30.20S
$$

TNZ012-013-036-069-073-074-281600-
CENTRAL EAST TENNESSEE

CITY           SKY/WX    TMP DP  RH WIND       PRES   REMARKS
KNOXVILLE      MOSUNNY   74  68  81 NW5       30.17S
OAK RIDGE      CLOUDY    75  64  68 CALM      30.19S
GATLINBURG     PTSUNNY   73  64  73 CALM      30.17S
$$

TNZ083-085-099-281600-
SOUTHEAST TENNESSEE

CITY           SKY/WX    TMP DP  RH WIND       PRES   REMARKS
CHATTANOOGA    PTSUNNY   78  62  57 S9        30.16S
$$

SKY/WX REPORTED AS FAIR MEANS FEW OR NO CLOUDS BELOW
12 THOUSAND FEET.





USA.gov is the U.S. government's official web portal to all federal, state and local government web resources and services.